BKP305 VTBS-VTBO

Flight info

Callsign BKP305
Flight time 0h 30m
Altitude 19000
Route RYN1G RYN W33 TRT
Aircraft A319/M-SDE3FGHIRWY/LB1

Departure

Time 2026-05-05 19:23
Airport Suvarnabhumi Airport (VTBS)

Arrival

Time 2026-05-05 19:54
Airport Trat Airport (VTBO)
Time Latitude Longitude Altitude Speed Heading
2026-05-05 19:02 13.69217 100.75527 13 ft 0 kts 284°
2026-05-05 19:10 13.69216 100.75527 13 ft 0 kts 284°
2026-05-05 19:16 13.69212 100.75546 13 ft 4 kts 285°
2026-05-05 19:17 13.69205 100.75573 14 ft 4 kts 284°
2026-05-05 19:17 13.69200 100.75600 13 ft 4 kts 269°
2026-05-05 19:17 13.69205 100.75621 13 ft 4 kts 202°
2026-05-05 19:17 13.69228 100.75628 13 ft 4 kts 194°
2026-05-05 19:18 13.69240 100.75631 16 ft 0 kts 194°
2026-05-05 19:20 13.69221 100.75626 17 ft 6 kts 194°
2026-05-05 19:21 13.69178 100.75634 13 ft 8 kts 149°
2026-05-05 19:21 13.69150 100.75687 15 ft 10 kts 104°
2026-05-05 19:21 13.69132 100.75756 13 ft 11 kts 104°
2026-05-05 19:21 13.69113 100.75833 13 ft 12 kts 104°
2026-05-05 19:22 13.69093 100.75917 13 ft 13 kts 104°
2026-05-05 19:22 13.69071 100.76011 13 ft 14 kts 103°
2026-05-05 19:22 13.69005 100.76063 13 ft 14 kts 193°
2026-05-05 19:22 13.68765 100.76001 15 ft 62 kts 194°
2026-05-05 19:23 13.68172 100.75842 13 ft 114 kts 194°
2026-05-05 19:23 13.67245 100.75597 15 ft 160 kts 194°
2026-05-05 19:23 13.66137 100.75299 488 ft 163 kts 195°
2026-05-05 19:23 13.65010 100.75076 1048 ft 167 kts 183°
2026-05-05 19:24 13.63843 100.75078 1675 ft 169 kts 180°
2026-05-05 19:24 13.62608 100.75117 2010 ft 188 kts 179°
2026-05-05 19:24 13.61218 100.75166 2251 ft 211 kts 179°
2026-05-05 19:24 13.59695 100.75435 2529 ft 237 kts 154°
2026-05-05 19:25 13.58487 100.76682 2940 ft 262 kts 115°
2026-05-05 19:25 13.58106 100.78537 3739 ft 269 kts 96°
2026-05-05 19:25 13.57842 100.80451 4662 ft 272 kts 102°
2026-05-05 19:25 13.57513 100.82377 5544 ft 275 kts 95°
2026-05-05 19:26 13.57424 100.84357 6400 ft 279 kts 92°
2026-05-05 19:26 13.57358 100.86363 7199 ft 282 kts 92°
2026-05-05 19:26 13.57308 100.88385 8022 ft 285 kts 91°
2026-05-05 19:26 13.57273 100.90440 8829 ft 288 kts 91°
2026-05-05 19:27 13.57251 100.92508 9638 ft 292 kts 90°
2026-05-05 19:27 13.57237 100.94613 10228 ft 302 kts 90°
2026-05-05 19:27 13.57224 100.96848 10424 ft 324 kts 90°
2026-05-05 19:27 13.57208 100.99231 10732 ft 340 kts 90°
2026-05-05 19:28 13.57187 101.01682 11296 ft 345 kts 90°
2026-05-05 19:28 13.56991 101.04152 11899 ft 350 kts 99°
2026-05-05 19:28 13.56564 101.06624 12522 ft 353 kts 100°
2026-05-05 19:28 13.56136 101.09086 13125 ft 357 kts 100°
2026-05-05 19:29 13.55698 101.11607 13724 ft 360 kts 100°
2026-05-05 19:29 13.55257 101.14154 14237 ft 364 kts 100°
2026-05-05 19:29 13.54813 101.16717 14768 ft 366 kts 100°
2026-05-05 19:29 13.54364 101.19306 15282 ft 370 kts 100°
2026-05-05 19:30 13.53912 101.21920 15806 ft 373 kts 99°
2026-05-05 19:30 13.53463 101.24551 16328 ft 375 kts 99°
2026-05-05 19:30 13.53008 101.27204 16833 ft 379 kts 99°
2026-05-05 19:30 13.52548 101.29879 17345 ft 382 kts 100°
2026-05-05 19:31 13.52079 101.32576 17840 ft 385 kts 100°
2026-05-05 19:31 13.51511 101.35275 18295 ft 389 kts 107°
2026-05-05 19:31 13.50491 101.37855 18697 ft 392 kts 116°
2026-05-05 19:31 13.49247 101.40350 18826 ft 392 kts 117°
2026-05-05 19:32 13.47989 101.42860 18864 ft 396 kts 117°
2026-05-05 19:32 13.46729 101.45379 18865 ft 397 kts 117°
2026-05-05 19:32 13.45467 101.47899 18865 ft 397 kts 117°
2026-05-05 19:32 13.44208 101.50418 18865 ft 397 kts 117°
2026-05-05 19:33 13.42944 101.52938 18865 ft 397 kts 118°
2026-05-05 19:33 13.41383 101.55277 18865 ft 397 kts 131°
2026-05-05 19:33 13.39344 101.57185 18866 ft 398 kts 144°
2026-05-05 19:33 13.36940 101.58569 18866 ft 398 kts 158°
2026-05-05 19:34 13.34285 101.59362 18866 ft 398 kts 170°
2026-05-05 19:34 13.31543 101.59769 18866 ft 398 kts 172°
2026-05-05 19:34 13.28797 101.60167 18867 ft 398 kts 172°
2026-05-05 19:35 13.23310 101.60970 18869 ft 399 kts 172°
2026-05-05 19:35 13.20558 101.61375 18875 ft 399 kts 171°
2026-05-05 19:35 13.17817 101.61781 18877 ft 399 kts 171°
2026-05-05 19:35 13.15068 101.62188 18876 ft 399 kts 171°
2026-05-05 19:36 13.12321 101.62593 18878 ft 399 kts 172°
2026-05-05 19:36 13.09576 101.62996 18880 ft 399 kts 172°
2026-05-05 19:36 13.06868 101.63394 18878 ft 398 kts 171°
2026-05-05 19:36 13.04125 101.63797 18875 ft 398 kts 171°
2026-05-05 19:37 13.01381 101.64200 18877 ft 398 kts 172°
2026-05-05 19:37 12.98638 101.64601 18876 ft 398 kts 171°
2026-05-05 19:37 12.95896 101.65002 18874 ft 398 kts 172°
2026-05-05 19:37 12.94041 101.65274 18871 ft 398 kts 172°
2026-05-05 19:38 12.90415 101.65803 18870 ft 398 kts 171°
2026-05-05 19:38 12.87673 101.66202 18871 ft 398 kts 171°
2026-05-05 19:38 12.84931 101.66603 18868 ft 398 kts 172°
2026-05-05 19:38 12.82196 101.67035 18865 ft 398 kts 167°
2026-05-05 19:39 12.79570 101.67901 18859 ft 397 kts 155°
2026-05-05 19:39 12.77198 101.69278 18678 ft 387 kts 144°
2026-05-05 19:39 12.75199 101.71076 18456 ft 380 kts 132°
2026-05-05 19:39 12.73527 101.73161 18234 ft 377 kts 128°
2026-05-05 19:40 12.71893 101.75261 17992 ft 376 kts 128°
2026-05-05 19:40 12.70263 101.77349 17740 ft 375 kts 128°
2026-05-05 19:40 12.68637 101.79425 17480 ft 373 kts 129°
2026-05-05 19:40 12.67562 101.80795 17317 ft 372 kts 129°
2026-05-05 19:41 12.65405 101.83536 16849 ft 366 kts 129°
2026-05-05 19:41 12.63810 101.85558 16356 ft 364 kts 129°
2026-05-05 19:41 12.62249 101.87540 15866 ft 361 kts 129°
2026-05-05 19:41 12.60681 101.89534 15376 ft 359 kts 129°
2026-05-05 19:42 12.59099 101.91546 14871 ft 356 kts 129°
2026-05-05 19:42 12.58074 101.92851 14555 ft 355 kts 129°
2026-05-05 19:42 12.56533 101.94814 14069 ft 353 kts 129°
2026-05-05 19:42 12.54621 101.97487 13398 ft 351 kts 119°
2026-05-05 19:43 12.53672 101.99770 12887 ft 348 kts 107°
2026-05-05 19:43 12.53204 102.02184 12409 ft 345 kts 98°
2026-05-05 19:43 12.52851 102.04599 11929 ft 342 kts 98°
2026-05-05 19:43 12.52613 102.06216 11607 ft 340 kts 99°
2026-05-05 19:44 12.52260 102.08596 11138 ft 337 kts 99°
2026-05-05 19:44 12.51909 102.10944 10813 ft 330 kts 99°
2026-05-05 19:44 12.51564 102.13253 10424 ft 326 kts 99°
2026-05-05 19:44 12.51231 102.15501 10300 ft 313 kts 98°
2026-05-05 19:45 12.50912 102.17664 10173 ft 302 kts 98°
2026-05-05 19:45 12.50602 102.19764 9943 ft 296 kts 99°
2026-05-05 19:45 12.50293 102.21834 9771 ft 296 kts 99°
2026-05-05 19:45 12.49981 102.23923 9377 ft 295 kts 99°
2026-05-05 19:46 12.49673 102.25993 9033 ft 293 kts 98°
2026-05-05 19:46 12.49368 102.28049 8652 ft 292 kts 98°
2026-05-05 19:46 12.49063 102.30097 8291 ft 290 kts 98°
2026-05-05 19:46 12.48762 102.32124 7835 ft 288 kts 98°
2026-05-05 19:47 12.48460 102.34149 7436 ft 286 kts 98°
2026-05-05 19:47 12.48160 102.36150 6913 ft 285 kts 98°
2026-05-05 19:47 12.47858 102.38151 6435 ft 282 kts 98°
2026-05-05 19:47 12.47570 102.40082 6287 ft 267 kts 98°
2026-05-05 19:48 12.47222 102.41913 5929 ft 259 kts 108°
2026-05-05 19:48 12.46414 102.43533 5567 ft 254 kts 126°
2026-05-05 19:48 12.45174 102.44832 5010 ft 256 kts 142°
2026-05-05 19:48 12.43775 102.45941 4550 ft 253 kts 142°
2026-05-05 19:49 12.42382 102.47007 4193 ft 245 kts 151°
2026-05-05 19:49 12.40805 102.47383 4042 ft 228 kts 185°
2026-05-05 19:49 12.39323 102.46853 3563 ft 231 kts 218°
2026-05-05 19:49 12.38227 102.45608 2986 ft 241 kts 232°
2026-05-05 19:50 12.37182 102.44259 2387 ft 241 kts 232°
2026-05-05 19:50 12.36181 102.42975 2149 ft 217 kts 232°
2026-05-05 19:50 12.35289 102.41840 2141 ft 195 kts 232°
2026-05-05 19:50 12.34487 102.40820 2059 ft 174 kts 232°
2026-05-05 19:51 12.33768 102.39908 1916 ft 157 kts 232°
2026-05-05 19:51 12.33117 102.39086 1703 ft 143 kts 232°
2026-05-05 19:51 12.32501 102.38310 1507 ft 138 kts 232°
2026-05-05 19:51 12.31905 102.37548 1319 ft 136 kts 233°
2026-05-05 19:52 12.31321 102.36788 1127 ft 136 kts 233°
2026-05-05 19:52 12.30737 102.36031 936 ft 135 kts 232°
2026-05-05 19:52 12.30141 102.35285 744 ft 135 kts 232°
2026-05-05 19:52 12.29543 102.34544 554 ft 135 kts 231°
2026-05-05 19:53 12.28944 102.33800 366 ft 135 kts 232°
2026-05-05 19:53 12.28358 102.33046 160 ft 136 kts 232°
2026-05-05 19:53 12.27797 102.32320 73 ft 117 kts 231°
2026-05-05 19:53 12.27430 102.31872 89 ft 58 kts 230°
2026-05-05 19:54 12.27259 102.31666 96 ft 17 kts 209°
2026-05-05 19:54 12.27231 102.31619 97 ft 1 kts 352°
2026-05-05 19:54 12.27251 102.31649 97 ft 14 kts 51°
2026-05-05 19:54 12.27325 102.31741 96 ft 18 kts 50°
2026-05-05 19:55 12.27412 102.31852 90 ft 22 kts 52°
2026-05-05 19:55 12.27516 102.31990 88 ft 26 kts 48°
2026-05-05 19:55 12.27645 102.32141 70 ft 31 kts 51°
2026-05-05 19:55 12.27779 102.32314 70 ft 32 kts 51°
2026-05-05 19:56 12.27930 102.32500 63 ft 30 kts 51°
2026-05-05 19:56 12.27966 102.32546 62 ft 2 kts 51°
2026-05-05 19:56 12.27986 102.32570 63 ft 7 kts 43°
2026-05-05 19:56 12.28032 102.32556 63 ft 9 kts 311°
2026-05-05 19:57 12.28081 102.32515 64 ft 10 kts 320°
2026-05-05 19:57 12.28092 102.32506 66 ft 0 kts 320°
2026-05-05 19:58 12.27881 102.32236 70 ft 0 kts 335°